METAR Formatted Surface Weather Observation
Issued by NWS

Home | Current Version | Previous Version | Text Only | Print | Product List | Glossary On
Versions: 1 2 3 4 5 6 7 8 9 10 11 12 13 14 15 16 17 18 19 20 21 22 23 24 25 26 27 28 29 30 31 32 33 34 35 36 37 38 39 40 41 42 43 44 45 46 47 48 49 50
000
SAUS41 KLWX 030553
MTRNHK
METAR KNHK 030552Z AUTO 05010KT 5SM -RA BR OVC009 14/13 A3011 RMK
AO2 RAB36 CIG 006V013 SLP196 P0001 60001 T01440133 10156 20144 53000



USA.gov is the U.S. government's official web portal to all federal, state and local government web resources and services.